Regional Weather Roundup
Issued by NWS

Home | Current Version | Previous Version | Graphics & Text | Print | Product List | Glossary On
Versions: 1 2 3 4 5 6 7 8 9 10 11 12 13 14 15 16 17 18 19 20 21 22 23 24 25 26 27 28 29 30 31 32 33 34 35 36 37 38 39 40 41 42 43 44 45 46 47 48 49 50
000
ASUS43 KTOP 282059
RWRKS

WEATHER ROUNDUP FOR KANSAS
NATIONAL WEATHER SERVICE GOODLAND KS
400 PM CDT SUN AUG 28 2016

NOTE:  "FAIR" INDICATES FEW OR NO CLOUDS BELOW 12,000 FEET WITH NO
SIGNIFICANT WEATHER AND/OR OBSTRUCTIONS TO VISIBILITY.

KSZ001>006-013>018-027>032-041>047-282200-
NORTHWEST KANSAS

CITY           SKY/WX    TMP DP  RH WIND       PRES   REMARKS
GOODLAND       MOSUNNY   83  56  39 S15       30.10F
HAYS           CLOUDY    84  61  45 SE8       30.06F
HILL CITY      SUNNY     85  63  47 S7        30.06F
RUSSELL        MOSUNNY   86  66  51 S7        30.04F
$$

KSZ061>065-074>080-084>089-282200-
SOUTHWEST KANSAS

CITY           SKY/WX    TMP DP  RH WIND       PRES   REMARKS
DODGE CITY     SUNNY     86  63  45 E10       30.08F
ELKHART          N/A     84  61  45 S12         N/A
GARDEN CITY    SUNNY     86  61  42 SE14G21   30.06F
GREAT BEND     MOSUNNY   84  63  48 S9        30.04F
LIBERAL        SUNNY     84  61  45 SW5       30.07F
$$

KSZ066>073-081>083-090>101-282200-
SOUTHEAST KANSAS

CITY           SKY/WX    TMP DP  RH WIND       PRES   REMARKS
CHANUTE        PTSUNNY   89  70  53 SE7       30.06F
COFFEYVILLE    CLOUDY    83  70  64 N8        30.04F
HUTCHINSON     MOSUNNY   89  68  49 SE10      30.05F
MEDICINE LODGE   N/A     71  68  90 NW17G25   30.06R
NEWTON         MOSUNNY   88  71  57 S13       30.07F
PARSONS        MOSUNNY   83  72  69 S3        30.07F
WICHITA INTL   PTSUNNY   88  72  58 SE12      30.04F
WICHITA JABRA  SUNNY     86  73  65 SE9       30.05F
WINFIELD       CLOUDY    84  71  65 S13       30.07F
$$

KSZ007>012-019>026-033>040-048>060-102>105-282200-
NORTHEAST KANSAS

CITY           SKY/WX    TMP DP  RH WIND       PRES   REMARKS
CONCORDIA      MOSUNNY   89  68  49 S18       30.04F
EMPORIA        MOSUNNY   85  72  65 S7        30.07F
LAWRENCE       SUNNY     88  72  58 SE10      30.06F
MANHATTAN      MOSUNNY   88  72  58 S15G21    30.04F
OLATHE IND     SUNNY     89  70  53 S8        30.08F
OLATHE EXE     MOSUNNY   87  70  56 SE9       30.08F
SALINA         SUNNY     91  68  46 S14       30.04F HX  95
TOPEKA BILLARD MOSUNNY   89  71  55 SE12      30.05F HX  95
TOPEKA FORBES  MOSUNNY   91  71  51 SE10      30.06F HX  97
$$




USA.gov is the U.S. government's official web portal to all federal, state and local government web resources and services.